Flag for Cambodia Weather past 2 weeks in Phnom Penh, Cambodia

Now
82 °F

Overcast.


Feels Like: 88 °F
Forecast: 77 / 91 °F
Wind: 8 mph from West

Location: Phnom-Penh / Pochentong

Current Time: Aug 1, 2014 at 9:23:42 AM

Latest Report: Aug 1, 2014 at 9:00 AM


Visibility: N/A

Pressure: 29.71 "Hg

Humidity: 74%

Dew point: 73 °F

Location of Phnom PenhLocation

Historic Weather in Phnom Penh — Graph

°F

Phnom Penh temperature yesterday

Maximum temperature yesterday: 91 °F (at 11:00 AM)
Minimum temperature yesterday: 79 °F (at 12:00 AM)
Average temperature yesterday: 85 °F

Past Weeks' High & Low Weather Summary

 TemperatureHumidityPressure
High95 °F (Jul 28, 1:00 PM)100% (Jul 22, 6:30 AM)29.83 "Hg (Jul 22, 6:30 AM)
Low77 °F (Jul 20, 6:00 AM)41% (Jul 27, 12:30 PM)29.62 "Hg (Jul 17, 2:30 PM)
Average84 °F72%29.72 "Hg
* Reported Jul 17 8:00 AM — Aug 1 8:00 AM, Phnom Penh, Weather by CustomWeather, © 2014

Note: Actual official high and low records may vary slightly from our data, if they occured in-between our weather recording intervals... More about our weather records

Advertising

Phnom Penh weather history for previous 24 hours

 ConditionsComfort  
Time TempWeatherWind HumidityBarometerVisibility
8:00 AM
Aug 1
79 °FOvercast.13 mph84%29.71 "HgN/A
7:30 AM81 °FPartly sunny.13 mph74%29.68 "Hg6 mi
7:00 AM79 °FScattered clouds.10 mph84%29.68 "HgN/A
6:30 AM81 °FPartly sunny.14 mph74%29.68 "Hg6 mi
6:00 AM82 °FPartly sunny.15 mph70%29.68 "Hg6 mi
1:00 AM81 °FPartly cloudy.5 mph84%29.68 "Hg6 mi
12:30 AM81 °FPartly cloudy.7 mph84%29.71 "Hg6 mi
12:00 AM82 °FPartly cloudy.7 mph79%29.71 "Hg6 mi
11:30 PM
Jul 31
81 °FPartly cloudy.5 mph84%29.71 "Hg6 mi
11:00 PM81 °FPartly cloudy.2 mph79%29.74 "Hg6 mi
10:30 PM81 °FPartly cloudy.6 mph79%29.71 "Hg6 mi
10:00 PM82 °FPartly cloudy.6 mph74%29.71 "Hg6 mi
9:30 PM82 °FPartly cloudy.6 mph74%29.71 "Hg6 mi
9:00 PM82 °FPartly cloudy.7 mph74%29.71 "Hg6 mi
8:30 PM82 °FLight rain. Partly cloudy.7 mph79%29.68 "Hg6 mi
8:00 PM84 °FPassing clouds.3 mph74%29.68 "Hg6 mi
7:30 PM84 °FLight rain. Passing clouds.5 mph74%29.65 "Hg6 mi
7:00 PM84 °FLight rain. Passing clouds.8 mph74%29.65 "Hg6 mi
6:30 PM84 °FPassing clouds.6 mph74%29.65 "Hg6 mi
6:00 PM86 °FScattered clouds.2 mph70%29.65 "Hg6 mi
5:30 PM88 °FScattered clouds.5 mph66%29.65 "Hg6 mi
5:00 PM86 °FScattered clouds.3 mph70%29.62 "HgN/A
4:30 PM84 °FScattered clouds.5 mph74%29.62 "HgN/A
4:00 PM84 °FScattered clouds.10 mph74%29.62 "HgN/A
3:30 PM86 °FLight rain. Scattered clouds.17 mph70%29.62 "Hg4 mi
3:00 PM90 °FScattered clouds.15 mph52%29.65 "HgN/A
2:30 PM90 °FScattered clouds.10 mph55%29.65 "HgN/A
2:00 PM90 °FScattered clouds.7 mph52%29.65 "HgN/A
1:30 PM90 °FScattered clouds.2 mph67%29.65 "HgN/A
1:00 PM91 °FScattered clouds.7 mph59%29.68 "HgN/A
12:30 PM91 °FBroken clouds.10 mph49%29.68 "HgN/A
12:00 PM91 °FBroken clouds.10 mph59%29.71 "HgN/A
11:30 AM91 °FBroken clouds.10 mph59%29.71 "HgN/A
11:00 AM91 °FBroken clouds.8 mph59%29.71 "HgN/A
10:30 AM88 °FBroken clouds.9 mph62%29.74 "HgN/A
10:00 AM86 °FBroken clouds.9 mph70%29.74 "HgN/A
9:30 AM84 °FBroken clouds.10 mph74%29.74 "HgN/A
9:00 AM84 °FBroken clouds.6 mph70%29.74 "HgN/A
Weather by CustomWeather, © 2014

See weather overviewHow to use our weather pages